Capri, Italy

7:04 AM CEST on July 28, 2017 (GMT +0200)
Capri

Weather History for LIQC - September, 2013

Change the Weather History Date:

Thursday, September 19, 2013

  Actual Average (LIRN) Record (LIRN)
Temperature  
Mean Temperature 74 °F -  
Max Temperature 81 °F 77 °F 87 °F (2015)
Min Temperature 67 °F 60 °F 51 °F (1996)
Cooling Degree Days 9    
Growing Degree Days 24 (Base 50)    
Moisture  
Dew Point 67 °F    
Average Humidity 86    
Maximum Humidity 100    
Minimum Humidity 58    
Precipitation  
Precipitation 0.12 in - - ()
Sea Level Pressure  
Sea Level Pressure 29.81 in    
Wind  
Wind Speed 5 mph ()    
Max Wind Speed 9 mph    
Max Gust Speed -    
Visibility 12.0 miles    
Events Rain    
Averages and records for this station are not official NWS values.
T = Trace of Precipitation, MM = Missing Value Source: Averaged Metar Reports

Daily Weather History Graph

Daily Weather History Graph

Search for Another Location

Airport or City:

Trip Planner

Search our weather history database for the weather conditions in past years. The results will help you decide how hot, cold, wet, or windy it might be!

Date:

Astronomy

Sep. 19, 2013 Rise Set
Actual Time 6:47 AM CEST 7:05 PM CEST
Civil Twilight 6:20 AM CEST 7:32 PM CEST
Nautical Twilight 5:48 AM CEST 8:04 PM CEST
Astronomical Twilight 5:15 AM CEST 8:37 PM CEST
Moon 6:53 PM CEST (9/19) 6:38 AM CEST (9/19)
Length of Visible Light 13h 12m
Length of Day
12h 17m
Full, 100% of the Moon is Illuminated
Sep 19
Full
Sep 19
Full
Sep 27
Last Quarter
Oct 5
New
Oct 12
First Quarter

Hourly Weather History & Observations

Time (CEST) Temp. Heat Index Dew Point Humidity Pressure Visibility Wind Dir Wind Speed Gust Speed Precip Events Conditions
12:55 AM 68.0 °F - 68.0 °F 100% 29.80 in - North - - N/A   Scattered Clouds
2:00 AM 68 °F - 65 °F 87% 29.79 in 12 mi North 5.8 mph - -  
2:55 AM 68.0 °F - 64.4 °F 88% 29.80 in - North - - N/A   Clear
3:55 AM 68.0 °F - 66.2 °F 94% 29.80 in - North - - N/A   Clear
4:55 AM 68.0 °F - 68.0 °F 100% 29.80 in - North - - N/A   Clear
5:00 AM 68 °F - 67 °F 98% 29.79 in 12 mi North 6.9 mph - -  
6:55 AM 68.0 °F - 68.0 °F 100% 29.80 in - North - - N/A   Scattered Clouds
7:55 AM 68.0 °F - 68.0 °F 100% 29.80 in - North - - N/A   Scattered Clouds
8:00 AM 67 °F - 67 °F 100% 29.79 in 12 mi North 9.2 mph - -   Overcast
8:55 AM 68.0 °F - 68.0 °F 100% 29.80 in - North - - N/A   Scattered Clouds
9:55 AM 69.8 °F - 68.0 °F 94% 29.80 in - North - - N/A   Scattered Clouds
10:55 AM 71.6 °F - 69.8 °F 94% 29.80 in - North - - N/A   Scattered Clouds
11:00 AM 72 °F - 69 °F 88% 29.79 in 12 mi 6.9 mph - -   Partly Cloudy
11:55 AM 73.4 °F - 68.0 °F 83% 29.80 in - North - - N/A   Mostly Cloudy
12:55 PM 75.2 °F - 68.0 °F 78% 29.80 in - North - - N/A   Scattered Clouds
1:55 PM 78.8 °F - 68.0 °F 69% 29.80 in - North - - N/A   Scattered Clouds
2:00 PM 78 °F - 69 °F 66% 29.78 in 12 mi 6.9 mph - -   Partly Cloudy
2:55 PM 78.8 °F - 69.8 °F 74% 29.80 in - North - - N/A Rain Rain
3:55 PM 78.8 °F - 71.6 °F 78% 29.80 in - North - - N/A   Scattered Clouds
4:55 PM 80.6 °F 83.2 °F 68.0 °F 65% 29.80 in - North - - N/A   Clear
5:55 PM 80.6 °F 82.3 °F 64.4 °F 58% 29.80 in - North - - N/A   Clear
7:55 PM 71.6 °F - 66.2 °F 83% 29.80 in - North - - N/A   Scattered Clouds
8:00 PM 71 °F - 65 °F 78% 29.81 in 12 mi 2.3 mph - -   Partly Cloudy
8:55 PM 71.6 °F - 66.2 °F 83% 29.83 in - North - - N/A   Scattered Clouds
9:55 PM 69.8 °F - 64.4 °F 83% 29.83 in - North - - N/A   Clear
10:55 PM 68.0 °F - 64.4 °F 88% 29.86 in - North - - N/A   Clear
11:00 PM 69 °F - 65 °F 82% 29.85 in 12 mi Calm Calm - -  
11:55 PM 68.0 °F - 64.4 °F 88% 29.86 in - North - - N/A   Clear